Regional Weather Roundup
Issued by NWS

Home | Current Version | Previous Version | Graphics & Text | Print | Product List | Glossary Off
Versions: 1 2 3 4 5 6 7 8 9 10 11 12 13 14 15 16 17 18 19 20 21 22 23 24 25 26 27 28 29 30 31 32 33 34 35 36 37 38 39 40 41 42 43 44 45 46 47 48 49 50

000
ASUS43 KTOP 201459
RWRKS

WEATHER ROUNDUP FOR KANSAS
NATIONAL WEATHER SERVICE GOODLAND KS
1000 AM CDT SUN MAY 20 2018

NOTE:  "FAIR" INDICATES FEW OR NO CLOUDS BELOW 12,000 FEET WITH NO
SIGNIFICANT WEATHER AND/OR OBSTRUCTIONS TO VISIBILITY.

KSZ001>006-013>018-027>032-041>047-201600-
NORTHWEST KANSAS

CITY           SKY/WX    TMP DP  RH WIND       PRES   REMARKS
HAYS           CLOUDY    54  50  87 NW14      30.16R
HILL CITY      CLOUDY    55  50  83 NW13      30.18S
RUSSELL        CLOUDY    56  54  93 NW12      30.13R
$$

KSZ061>065-074>080-084>089-201600-
SOUTHWEST KANSAS

CITY           SKY/WX    TMP DP  RH WIND       PRES   REMARKS
DODGE CITY     CLOUDY    54  45  71 N17       30.17R
GARDEN CITY    CLOUDY    53  44  71 N20       30.19R
$$

KSZ066>073-081>083-090>101-201600-
SOUTHEAST KANSAS

CITY           SKY/WX    TMP DP  RH WIND       PRES   REMARKS
CHANUTE        CLOUDY    68  68 100 S7        30.03R
COFFEYVILLE    CLOUDY    69  66  90 SE7       30.01F
HUTCHINSON     CLOUDY    58  54  86 NW10      30.10S
MEDICINE LODGE   N/A     58  50  75 N13         N/A
PARSONS        CLOUDY    69  67  93 CALM      30.03F
WICHITA INTL   LGT RAIN  58  57  97 N12       30.08R
WICHITA JABRA  CLOUDY    59  58  96 NW10      30.08R
WICHITA MCCONL LGT RAIN  59  56  90 N10       30.08
WINFIELD       CLOUDY    61  60  97 N13       30.06F FOG
$$

KSZ007>012-019>026-033>040-048>060-102>105-201600-
NORTHEAST KANSAS

CITY           SKY/WX    TMP DP  RH WIND       PRES   REMARKS
LAWRENCE       PTSUNNY   67  64  90 SE8       30.07F
MANHATTAN      CLOUDY    62  57  83 NE5       30.09R HAZE
OLATHE IND     LGT RAIN  65  64  97 NE8       30.07F
OLATHE EXE     LGT RAIN  64  63  96 E3        30.08F
SALINA         CLOUDY    59  55  87 NW12      30.11R
TOPEKA BILLARD LGT RAIN  65  65 100 E6        30.07R
TOPEKA FORBES  PTSUNNY   66  66 100 NE3       30.06S
$$



USA.gov is the U.S. government's official web portal to all federal, state and local government web resources and services.